Location: Ammerl�gen
(47.2167°N, 9.6000°E)
Time: 09:09:41
(UTC+00:00)

NOAA 19 - Pass Details

Date: 01 December 2021
Orbit: 841 x 860 km, 99.2° (Epoch: 26 January)

Event Time Altitude Azimuth Distance (km) Brightness Sun altitude
Rises 17:28:03 0° 150° (SSE) 3,384 8.2 -18.7°
Reaches altitude 10° 17:30:26 10° 147° (SSE) 2,454 7.4 -19.1°
Maximum altitude 17:35:45 58° 69° (ENE) 976 5.2 -20.0°
Drops below altitude 10° 17:41:08 10° 352° (N) 2,477 7.6 -20.9°
Sets 17:43:32 0° 349° (NNW) 3,418 8.4 -21.3°
